Location: Unspecified
(0.0000°N, 0.0000°E)
Time: 08:35:22
(UTC+00:00)

Transit 4A - Pass Details

Date: 08 October 2023
Orbit: 864 x 979 km, 66.8° (Epoch: 05 December)

Event Time Altitude Azimuth Distance (km) Brightness Sun altitude
Rises 20:50:03 0° 308° (NW) 3,540 11.4 -45.3°
Reaches altitude 10° 20:53:34 10° 288° (WNW) 2,577 10.7 -46.2°
Enters shadow 20:54:50 13° 276° (W) 2,331 10.5 -46.5°
Maximum altitude 20:57:08 16° 250° (WSW) 2,134 - -47.1°
Drops below altitude 10° 21:00:41 10° 213° (SSW) 2,540 - -47.9°
Sets 21:04:09 0° 192° (SSW) 3,465 - -48.8°
